[[{"header":{"parameterUnit":"m.s-1","parameterCategory":1,"la1":30.2991,"la2":30.254,"lo1":-89.0895,"lo2":-89.0444,"dx":0.0017,"dy":0.0017,"nx":28,"ny":28,"refTime":"2022-12-18T15:00:00:Z","depth":0,"parameterNumber":2,"parameterNumberName":"U-component_of_WINDS"},"data":[0,0,0,0,0,0,0,0,0,0,0,0,0,0,0,0,0,0,0,0,0,0,0,0,0,0,0,0,0,0,0,0,0,0,0,0,0,0,0,0,0,0,0,0,0,0,0,0,0,0,0,0,0,0,0,0,0,0,-8.2239,-8.224,0,-8.2329,-8.233,-8.2331,-8.2113,-8.2106,-8.2099,-8.2093,-8.2191,-8.2199,-8.2208,0,0,0,0,0,0,0,0,0,0,0,0,0,-8.1882,-8.189,-8.2239,-8.224,-8.2241,-8.2329,-8.233,-8.2332,-8.2114,-8.2106,-8.2098,-8.209,-8.2188,-8.2198,-8.2209,0,0,0,0,0,0,0,0,0,0,0,0,0,-8.2012,-8.1892,-8.2239,-8.2143,-8.2135,-8.2329,-8.233,-8.2332,-8.2116,-8.2106,-8.2095,-8.2086,-8.2184,-8.2197,-8.2211,-8.2503,0,0,-8.2252,-8.2258,0,0,0,0,0,0,0,0,-8.2004,-8.2025,-8.2156,-8.215,-8.2142,-8.2199,-8.224,-8.2389,-8.2119,-8.2124,-8.2093,-8.2081,-8.2202,-8.2214,-8.2254,-8.2507,-8.2511,-8.2253,-8.2262,-8.2268,-8.2271,0,0,0,0,0,0,0,-8.1996,-8.202,-8.2275,-8.2158,-8.215,-8.2097,-8.2104,-8.2268,-8.222,-8.2122,-8.2107,-8.212,-8.2196,-8.2241,-8.2254,-8.2513,-8.2253,-8.2265,-8.2274,-8.2279,-8.3012,-8.3023,0,0,0,0,0,0,-8.1998,-8.2014,-8.2272,-8.2277,-8.2046,-8.2112,-8.212,-8.2191,-8.2218,-8.2212,-8.2129,-8.211,-8.2223,-8.2239,-8.2257,-8.2602,-8.2267,-8.228,-8.2288,-8.3001,-8.3015,-8.3027,0,0,0,0,0,0,-8.1992,-8.2023,-8.2268,-8.2141,-8.2168,-8.2129,-8.2212,-8.2199,-8.2243,-8.2223,-8.2214,-8.2183,-8.2215,-8.2238,-8.2443,-8.2603,-8.2286,-8.2299,-8.2988,-8.3005,-8.3021,-8.3295,0,0,0,0,0,0,-8.1982,-8.2022,-8.2132,-8.2145,-8.2176,-8.2453,-8.2221,-8.2208,-8.2266,-8.2242,-8.2271,-8.2266,-8.2209,-8.2424,-8.2457,-8.2616,-8.2309,-8.2973,-8.2995,-8.3015,-8.3271,-8.3319,-8.336,0,0,0,0,0,-8.197,-8.2206,-8.2138,-8.2171,-8.2312,-8.2462,-8.248,-8.2408,-8.228,-8.2391,-8.2378,-8.2265,-8.2579,-8.2447,-8.2482,-8.2647,-8.2963,-8.2989,-8.3014,-8.3252,-8.331,-8.3359,0,0,0,0,0,0,-8.2214,-8.2206,-8.2131,-8.2378,-8.2422,-8.2425,-8.2562,-8.2471,-8.2554,-8.2528,-8.2436,-8.2445,-8.2669,-8.2677,-8.253,-8.2932,-8.2749,-8.2783,-8.2918,-8.2973,-8.3017,-8.3011,-8.2321,0,0,0,0,0,-8.2296,-8.2417,-8.2404,-8.2623,-8.2649,-8.2603,-8.2665,-8.2606,-8.2648,-8.2667,-8.2668,-8.2716,-8.2825,-8.2899,-8.2998,-8.327,-8.3275,-8.3401,-8.3445,-8.3482,-8.3513,-8.366,-8.3717,-8.3111,-8.311,-8.311,0,0,-8.2468,-8.2478,-8.256,-8.2672,-8.2699,-8.2829,-8.262,-8.2765,-8.2861,-8.2689,-8.2883,-8.2887,-8.2933,-8.3174,-8.328,-8.3189,-8.3681,-8.3514,-8.3544,-8.3555,-8.3693,-8.375,-8.3801,-8.3128,-8.3125,-8.3122,0,0,-8.2847,-8.2866,-8.3051,-8.3083,-8.3126,-8.3094,-8.3139,-8.3155,-8.3151,-8.3344,-8.3218,-8.3331,-8.352,-8.3559,-8.3604,-8.3999,-8.39,-8.4034,-8.4266,-8.4411,-8.4458,-8.45,-8.4644,-8.4696,-8.4064,-8.4065,-8.4065,0,-8.3055,-8.3244,-8.3159,-8.3313,-8.3367,-8.3216,-8.3404,-8.3439,-8.3514,-8.3556,-8.3451,-8.3687,-8.3707,-8.3956,-8.4053,-8.4093,-8.4143,-8.4031,-8.4458,-8.4499,-8.4537,-8.4673,-8.4727,-8.4081,-8.4079,-8.4078,-8.4076,0,-8.3499,-8.3632,-8.3777,-8.3852,-8.3921,-8.4093,-8.4035,-8.4116,-8.4051,-8.403,-8.423,-8.4249,-8.4351,-8.4404,-8.4342,-8.4646,-8.4588,-8.4473,-8.4288,-8.4613,-8.4739,-8.479,-8.4104,-8.4099,-8.4094,-8.409,0,0,-8.4037,-8.4062,-8.4117,-8.415,-8.4186,-8.4288,-8.4453,-8.455,-8.4623,-8.4679,-8.4817,-8.4981,-8.4874,-8.4926,-8.4866,-8.4993,-8.5308,-8.4861,-8.4861,-8.4946,-8.5647,-8.5736,-8.5798,-8.524,-8.525,-8.5257,-8.5644,0,-8.4414,-8.4695,-8.4624,-8.4905,-8.5028,-8.4885,-8.5029,-8.5068,-8.5053,-8.5156,-8.5139,-8.5258,-8.5107,-8.5137,-8.5256,-8.5244,-8.5448,-8.5215,-8.5371,-8.5377,-8.5367,-8.5863,-8.5958,-8.6322,-8.5692,-8.5701,-8.5707,0,-8.4892,-8.4966,-8.5259,-8.5276,-8.5325,-8.5456,-8.554,-8.564,-8.5682,-8.5662,-8.572,-8.5635,-8.58,-8.5612,-8.5839,-8.5683,-8.5742,-8.5746,-8.5758,-8.5773,-8.5564,-8.5894,-8.6435,-8.6492,-8.5783,-8.5777,-8.5771,0,-8.5259,-8.5431,-8.5629,-8.5661,-8.5686,-8.5782,-8.5797,-8.5828,-8.5892,-8.5966,-8.6007,-8.61,-8.6152,-8.6227,-8.6171,-8.6038,-8.6408,-8.6215,-8.6399,-8.6401,-8.6486,-8.6482,-8.7048,-8.652,-8.6519,-8.6518,-8.6517,0,-8.5689,-8.5875,-8.5794,-8.5917,-8.6121,-8.6037,-8.6243,-8.6241,-8.6271,-8.6392,-8.6273,-8.639,-8.6307,-8.6417,-8.6374,-8.657,-8.6594,-8.6585,-8.6572,-8.6597,-8.6599,-8.6637,-8.6612,-8.6532,-8.6529,-8.6526,-8.6524,0,-8.6135,-8.6088,-8.6295,-8.6301,-8.6307,-8.6458,-8.6463,-8.6578,-8.6553,-8.6708,-8.6739,-8.6702,-8.6826,-8.6776,-8.6907,-8.6878,-8.7131,-8.7083,-8.7117,-8.7106,-8.7294,-8.7279,-8.7907,-8.7986,-8.7404,-8.741,-8.7414,0,-8.6414,-8.6554,-8.6574,-8.6646,-8.6669,-8.6787,-8.6851,-8.6774,-8.6846,-8.6905,-8.7013,-8.7126,-8.7212,-8.7416,-8.7402,-8.7502,-8.7458,-8.7671,-8.7473,-8.7495,-8.7465,-8.7459,-8.7474,-8.7713,-8.7719,-8.7725,-8.7729,0,-8.6917,-8.6886,-8.6982,-8.7072,-8.7152,-8.7219,-8.7275,-8.7341,-8.7267,-8.7354,-8.7478,-8.7546,-8.7679,-8.7794,-8.7883,-8.7899,-8.7805,-8.7791,-8.784,-8.7869,-8.7884,-8.7882,-8.7229,-8.7778,-8.7773,-8.777,-8.7767,-8.7765,-8.7289,-8.7407,-8.7441,-8.7553,-8.7587,-8.7643,-8.7751,-8.774,-8.7841,-8.7943,-8.7891,-8.8037,-8.8076,-8.8185,-8.8216,-8.8329,-8.8246,-8.8316,-8.8334,-8.8354,-8.838,-8.7864,-8.8345,-8.8343,-8.8342,-8.8341,-8.834,0,-8.7788,-8.7802,-8.7906,-8.7988,-8.8077,-8.7976,-8.8034,-8.8116,-8.8244,-8.8288,-8.8375,-8.8519,-8.863,-8.8624,-8.8727,-8.8819,-8.8779,-8.8849,-8.8843,-8.885,-8.8446,-8.8396,-8.8881,-8.8881,-8.8881,-8.888,-8.888,-8.888,-8.8058,-8.8253,-8.8228,-8.8439,-8.8451,-8.8592,-8.8634,-8.8686,-8.872,-8.8886,-8.8977,-8.8971,-8.8996,-8.91,-8.9198,-8.9193,-8.9238,-8.9326,-8.9307,-8.8931,-8.8877,-8.8826,-8.8778,-8.9336,-8.9337,-8.97,-8.9703,-8.9706]},{"header":{"parameterUnit":"m.s-1","parameterCategory":1,"la1":30.2991,"la2":30.254,"lo1":-89.0895,"lo2":-89.0444,"dx":0.0017,"dy":0.0017,"nx":28,"ny":28,"refTime":"2022-12-18T15:00:00:Z","depth":0,"parameterNumber":3,"parameterNumberName":"V-component_of_WINDS"},"data":[0,0,0,0,0,0,0,0,0,0,0,0,0,0,0,0,0,0,0,0,0,0,0,0,0,0,0,0,0,0,0,0,0,0,0,0,0,0,0,0,0,0,0,0,0,0,0,0,0,0,0,0,0,0,0,0,0,0,-4.6331,-4.633,0,-4.6314,-4.6314,-4.6314,-4.6246,-4.6245,-4.6243,-4.6242,-4.6223,-4.6224,-4.6225,0,0,0,0,0,0,0,0,0,0,0,0,0,-4.63,-4.6301,-4.6331,-4.633,-4.633,-4.6314,-4.6314,-4.6314,-4.6247,-4.6245,-4.6243,-4.6241,-4.6223,-4.6224,-4.6225,0,0,0,0,0,0,0,0,0,0,0,0,0,-4.6301,-4.6301,-4.6331,-4.6295,-4.6291,-4.6314,-4.6314,-4.6314,-4.6247,-4.6245,-4.6242,-4.624,-4.6223,-4.6224,-4.6226,-4.6281,0,0,-4.623,-4.6231,0,0,0,0,0,0,0,0,-4.6301,-4.6302,-4.63,-4.6297,-4.6294,-4.628,-4.6296,-4.6303,-4.6248,-4.6264,-4.6242,-4.6239,-4.6244,-4.6244,-4.6246,-4.628,-4.6279,-4.623,-4.6231,-4.6232,-4.6232,0,0,0,0,0,0,0,-4.6301,-4.6303,-4.6324,-4.63,-4.6296,-4.6278,-4.6276,-4.6297,-4.6267,-4.6262,-4.6257,-4.6256,-4.6242,-4.6244,-4.6245,-4.6279,-4.623,-4.6231,-4.6232,-4.6233,-4.6354,-4.6356,0,0,0,0,0,0,-4.6307,-4.6303,-4.6325,-4.6323,-4.6292,-4.6281,-4.6278,-4.6287,-4.6267,-4.6262,-4.6258,-4.6253,-4.6243,-4.6243,-4.6244,-4.6304,-4.6232,-4.6233,-4.6234,-4.6351,-4.6354,-4.6357,0,0,0,0,0,0,-4.6306,-4.6309,-4.6325,-4.6312,-4.6313,-4.6284,-4.6294,-4.6288,-4.629,-4.6264,-4.6258,-4.6267,-4.6241,-4.6242,-4.6271,-4.6302,-4.6234,-4.6235,-4.6348,-4.6352,-4.6355,-4.6427,0,0,0,0,0,0,-4.6306,-4.631,-4.6332,-4.6313,-4.6314,-4.6355,-4.6296,-4.6289,-4.6293,-4.6286,-4.627,-4.6265,-4.6239,-4.627,-4.6273,-4.6303,-4.6236,-4.6345,-4.635,-4.6354,-4.6422,-4.6433,-4.6442,0,0,0,0,0,-4.6305,-4.6353,-4.6333,-4.6336,-4.6341,-4.6357,-4.6357,-4.6327,-4.6296,-4.6316,-4.6299,-4.6266,-4.6299,-4.6273,-4.6276,-4.6308,-4.6343,-4.6349,-4.6354,-4.6417,-4.6431,-4.6442,0,0,0,0,0,0,-4.6376,-4.635,-4.6328,-4.6372,-4.6367,-4.6345,-4.6371,-4.6342,-4.6346,-4.6339,-4.6301,-4.6298,-4.6332,-4.6323,-4.6295,-4.6358,-4.6315,-4.6321,-4.6362,-4.6375,-4.6385,-4.6385,-4.6237,0,0,0,0,0,-4.6397,-4.6413,-4.6389,-4.643,-4.6429,-4.64,-4.6406,-4.6383,-4.6376,-4.6374,-4.6359,-4.6353,-4.6361,-4.6368,-4.6375,-4.6421,-4.6414,-4.6443,-4.6454,-4.6462,-4.6467,-4.6486,-4.6498,-4.6374,-4.6374,-4.6374,0,0,-4.6441,-4.6428,-4.6441,-4.6444,-4.6438,-4.6453,-4.6399,-4.6419,-4.6429,-4.6377,-4.6403,-4.6392,-4.6382,-4.6419,-4.6435,-4.6412,-4.65,-4.6469,-4.6476,-4.6476,-4.6493,-4.6505,-4.6515,-4.6378,-4.6377,-4.6376,0,0,-4.6527,-4.6521,-4.6552,-4.6546,-4.6537,-4.6517,-4.6524,-4.6507,-4.6497,-4.6523,-4.6482,-4.6494,-4.6511,-4.6504,-4.6503,-4.6583,-4.6552,-4.6587,-4.6639,-4.6658,-4.6668,-4.6676,-4.6702,-4.6712,-4.6592,-4.6593,-4.6593,0,-4.6582,-4.6605,-4.6572,-4.6593,-4.6594,-4.6547,-4.6577,-4.6573,-4.6566,-4.6567,-4.6543,-4.656,-4.6551,-4.6583,-4.6603,-4.6605,-4.661,-4.6588,-4.6669,-4.6678,-4.6685,-4.6708,-4.6719,-4.6597,-4.6596,-4.6596,-4.6595,0,-4.667,-4.6687,-4.6713,-4.6707,-4.6711,-4.6737,-4.6706,-4.6714,-4.669,-4.6672,-4.6697,-4.6684,-4.6685,-4.6691,-4.6669,-4.672,-4.6706,-4.6677,-4.6632,-4.6701,-4.6723,-4.6732,-4.6603,-4.6601,-4.66,-4.6599,0,0,-4.6802,-4.6775,-4.6785,-4.678,-4.6765,-4.6776,-4.6798,-4.6799,-4.6805,-4.6802,-4.6817,-4.6831,-4.6802,-4.6801,-4.6777,-4.6795,-4.6854,-4.6762,-4.6761,-4.6777,-4.6906,-4.6927,-4.6938,-4.6834,-4.6836,-4.6837,-4.6906,0,-4.6882,-4.6918,-4.6888,-4.693,-4.6942,-4.6896,-4.6914,-4.6906,-4.689,-4.6896,-4.6878,-4.6887,-4.685,-4.6848,-4.6864,-4.6844,-4.6879,-4.6839,-4.6846,-4.6846,-4.6847,-4.695,-4.6972,-4.7038,-4.6914,-4.6916,-4.6917,0,-4.698,-4.6979,-4.7022,-4.7,-4.7004,-4.7022,-4.7018,-4.7027,-4.7015,-4.7001,-4.6999,-4.6968,-4.6986,-4.6944,-4.6967,-4.694,-4.6941,-4.6931,-4.6933,-4.693,-4.6884,-4.6947,-4.7058,-4.7067,-4.693,-4.6929,-4.6928,0,-4.7067,-4.7077,-4.7103,-4.71,-4.7077,-4.7089,-4.708,-4.7066,-4.7068,-4.7065,-4.7064,-4.7064,-4.7063,-4.7062,-4.7031,-4.7005,-4.7056,-4.7013,-4.7043,-4.7044,-4.7055,-4.7054,-4.7165,-4.706,-4.706,-4.706,-4.7059,0,-4.7158,-4.7185,-4.7141,-4.7157,-4.7185,-4.7149,-4.7177,-4.7163,-4.715,-4.716,-4.7121,-4.7132,-4.7092,-4.7097,-4.7074,-4.7093,-4.7094,-4.7082,-4.7075,-4.7084,-4.7085,-4.7082,-4.7076,-4.7062,-4.7062,-4.7061,-4.7061,0,-4.726,-4.7232,-4.7256,-4.7231,-4.7225,-4.7247,-4.7224,-4.7236,-4.7217,-4.723,-4.7231,-4.7199,-4.7204,-4.7173,-4.7172,-4.7156,-4.7186,-4.7173,-4.719,-4.7185,-4.7215,-4.7212,-4.7326,-4.7338,-4.7228,-4.723,-4.723,0,-4.7318,-4.7337,-4.7314,-4.7317,-4.731,-4.7318,-4.7318,-4.7283,-4.7285,-4.7271,-4.7284,-4.7285,-4.7283,-4.7292,-4.7268,-4.7266,-4.725,-4.729,-4.7249,-4.7257,-4.7247,-4.7245,-4.7245,-4.7298,-4.73,-4.7301,-4.7302,0,-4.7423,-4.7408,-4.7411,-4.7407,-4.7409,-4.7405,-4.7399,-4.7404,-4.7365,-4.7369,-4.7372,-4.7371,-4.7369,-4.7369,-4.7362,-4.735,-4.7318,-4.7315,-4.7321,-4.7329,-4.7337,-4.733,-4.721,-4.7312,-4.7311,-4.731,-4.731,-4.7309,-4.7503,-4.7516,-4.7501,-4.7504,-4.7495,-4.7489,-4.7498,-4.7478,-4.7481,-4.7476,-4.7455,-4.7461,-4.7445,-4.7432,-4.7423,-4.7426,-4.7407,-4.7417,-4.7419,-4.7421,-4.7425,-4.7339,-4.7426,-4.7425,-4.7425,-4.7425,-4.7424,0,-4.7603,-4.759,-4.7594,-4.7585,-4.7586,-4.7557,-4.7547,-4.755,-4.7556,-4.7545,-4.7543,-4.7545,-4.7544,-4.752,-4.7515,-4.7522,-4.7507,-4.7522,-4.752,-4.7517,-4.7445,-4.7438,-4.7534,-4.7534,-4.7534,-4.7534,-4.7534,-4.7534,-4.7656,-4.7676,-4.7658,-4.7672,-4.7658,-4.7664,-4.766,-4.7654,-4.7644,-4.7648,-4.7646,-4.763,-4.7612,-4.7606,-4.7603,-4.7595,-4.7594,-4.7613,-4.7601,-4.7533,-4.7523,-4.7512,-4.7506,-4.7614,-4.7614,-4.7672,-4.7673,-4.7673]}]]